{"data":{"norad_id":55944,"epoch":"2026-09-20T22:00:03.000096Z","epoch_age_seconds":70070,"freshness":"FRESH","line1":"1 55944U 23037AG  26263.91670139  .00026303  00000+0  20315-2 0  9993","line2":"2 55944  70.0014 152.0753 0001814 321.9829 160.2319 15.01462142  5768","mean_motion":15.01462142,"eccentricity":0.0001814,"inclination_deg":70.0014,"raan_deg":152.0753,"arg_perigee_deg":321.9829,"mean_anomaly_deg":160.2319,"bstar":0.0020315,"rev_number":576,"period_min":95.9065140385,"perigee_km":561.12783086252,"apogee_km":563.64585291235,"semimajor_km":6940.5238418874,"source":"CELESTRAK","updated_at":"2026-09-21T09:00:33.344293Z"}}